GFSNE_sfc_thetae_060.txt.gz
Theta_e
290 290 290 291 292 292 292 292 289 286 287 292 293 297 300 303 307 308 309 315 318 320 323 325 328 330 331 332 332 331 331 330 328 328 327 327 328 327
291 290 290 291 291 291 291 292 292 290 287 292 292 296 298 303 305 307 308 314 316 318 321 323 325 328 330 330 329 329 329 329 329 329 328 328 328 328
290 290 290 291 290 290 290 291 291 291 289 292 293 293 295 297 300 304 308 309 310 318 321 322 323 325 326 326 326 326 327 327 328 328 328 328 327 327
291 290 290 292 291 291 290 289 290 291 291 289 292 292 293 296 298 299 302 307 309 314 318 322 321 322 323 323 322 324 324 325 327 328 328 328 328 327
292 291 291 292 290 291 291 291 290 292 291 291 291 293 294 295 297 299 300 302 308 314 317 320 320 321 321 320 319 320 320 321 323 325 325 326 327 328
293 293 292 292 292 291 292 291 291 290 291 291 292 292 294 296 297 297 298 300 303 310 314 316 319 320 320 320 320 319 318 320 321 321 321 323 325 326
293 293 294 296 299 298 293 292 291 289 290 290 291 291 292 295 295 298 298 298 299 305 308 311 314 315 316 319 317 317 316 319 320 320 320 319 321 322
295 296 296 299 300 302 302 303 299 291 289 289 290 291 291 295 297 298 297 298 297 305 305 308 312 312 314 314 316 317 316 318 318 319 318 318 318 319
297 296 296 297 298 296 298 301 300 301 301 295 291 292 292 295 298 297 297 298 296 301 307 305 310 309 313 313 315 316 316 316 316 316 316 317 318 318
298 297 296 296 296 295 294 293 293 293 294 295 296 294 296 298 300 300 299 299 301 304 303 301 307 307 310 312 314 315 316 315 314 315 316 315 315 316
298 297 296 295 298 300 295 292 292 292 298 301 302 301 301 303 302 301 298 297 294 300 302 302 304 304 307 309 312 313 314 313 314 315 315 314 313 314
298 296 299 297 298 299 294 291 291 291 294 296 297 300 301 301 305 302 300 297 294 296 302 299 302 301 299 303 307 309 310 312 312 313 313 313 312 311
296 295 294 299 299 299 299 293 292 295 296 296 295 297 298 300 302 302 301 300 295 295 300 299 300 300 300 298 302 303 308 310 310 311 311 310 309 308
296 295 295 297 298 298 298 299 300 299 295 293 294 295 295 296 299 300 300 300 300 298 302 299 298 300 297 297 298 299 302 305 308 308 309 311 309 308
296 296 296 297 298 297 299 300 301 298 294 292 293 291 293 296 299 300 300 300 298 299 301 299 301 302 301 298 297 298 298 300 304 305 305 307 307 307
297 295 296 296 297 296 296 294 298 298 294 293 293 293 294 295 296 297 298 297 296 296 298 300 301 302 299 300 299 299 300 297 300 302 303 302 304 305
296 293 289 288 288 289 293 291 295 296 295 294 292 290 293 294 294 296 296 296 294 297 295 296 300 301 301 301 299 300 300 299 300 299 299 298 300 302
291 289 286 287 286 286 288 291 291 294 294 293 293 293 292 292 293 295 296 295 295 295 298 296 296 298 298 300 303 300 299 299 300 300 300 298 298 299
289 288 285 286 286 286 287 287 289 293 293 293 292 291 292 293 294 295 296 296 295 295 298 296 295 295 294 294 297 301 299 299 300 299 300 300 299 299
288 287 288 289 291 290 287 287 287 288 289 291 291 291 292 294 294 295 295 295 295 297 296 297 295 296 296 294 295 298 299 300 301 299 299 300 301 303
286 286 288 289 289 290 292 292 289 289 289 289 289 290 291 295 295 296 296 297 297 296 296 296 296 302 298 299 295 295 297 296 301 301 300 299 298 298
286 287 288 288 289 289 290 291 293 294 293 289 292 290 291 292 294 297 297 296 296 297 297 298 297 298 297 296 293 294 295 297 299 300 301 300 299 295
285 287 287 288 288 288 289 290 290 292 294 292 290 294 295 295 293 298 298 299 297 297 298 297 297 298 297 298 296 295 295 296 299 298 299 301 301 301

GFSNE_sfc_thetae_063.txt.gz
Theta_e
295 295 295 295 296 296 296 295 292 289 291 295 295 300 302 304 307 308 308 311 313 315 320 321 324 327 331 333 333 333 334 334 333 334 334 334 335 335
295 294 294 295 295 296 296 295 295 293 291 295 296 298 301 302 305 308 308 312 312 314 316 319 322 325 329 330 331 330 330 331 331 330 331 331 331 331
294 293 293 294 294 295 295 295 294 294 292 294 296 298 299 301 302 305 306 306 306 310 313 318 320 322 325 327 327 328 328 329 330 330 329 329 330 330
293 293 293 294 294 294 295 294 294 295 294 291 294 296 297 300 301 302 303 303 305 308 311 316 319 321 323 324 325 325 325 326 327 329 329 329 329 329
294 293 293 294 293 293 293 293 294 294 294 293 292 296 297 299 300 302 303 304 305 308 311 315 317 319 322 322 322 321 322 322 324 325 326 327 328 329
294 294 294 294 294 294 294 293 294 295 295 294 294 294 297 298 300 298 300 303 303 306 309 313 315 319 321 321 321 319 318 320 321 322 322 324 326 326
296 295 295 296 300 298 294 294 294 294 294 293 292 293 294 296 295 299 299 300 303 306 308 311 314 319 321 321 320 317 317 319 321 321 321 320 322 324
297 298 299 301 301 304 304 303 296 294 292 291 292 292 293 296 297 298 299 299 297 306 306 308 315 316 319 321 317 317 316 318 319 320 319 319 320 321
298 298 298 300 300 298 301 303 303 303 301 294 292 293 293 297 297 297 298 299 300 304 307 305 313 313 316 317 316 316 317 317 317 318 317 318 319 320
297 297 297 297 298 298 296 296 296 298 298 298 297 297 298 298 299 299 300 300 303 306 308 303 312 311 316 315 315 315 316 316 315 316 316 316 317 318
298 298 298 298 301 302 297 294 294 296 299 300 301 301 301 301 300 300 299 297 294 301 306 307 308 307 309 310 313 314 314 313 315 316 316 315 315 316
298 298 302 300 302 301 297 296 294 294 296 297 298 300 301 301 303 300 300 295 295 296 304 305 305 304 302 308 310 313 314 313 312 314 314 314 313 318
298 298 298 301 301 301 300 297 296 297 297 297 297 298 298 301 301 302 303 298 296 294 307 307 305 303 304 302 304 312 316 312 313 313 312 312 312 315
296 296 296 297 298 298 298 298 300 300 298 297 296 295 295 296 298 302 303 302 302 301 307 309 305 305 303 301 299 301 309 312 315 313 316 313 311 311
298 297 296 297 297 298 298 298 298 299 298 293 293 295 296 296 300 301 302 302 301 305 307 308 308 307 306 303 301 299 302 304 311 312 313 313 312 311
298 297 298 298 298 298 297 295 298 298 296 296 296 297 297 298 300 301 299 299 301 302 305 308 308 308 306 305 304 299 301 299 306 309 311 312 312 311
296 294 294 295 296 296 296 295 296 294 297 297 297 296 296 296 299 301 300 300 300 300 301 303 305 307 305 303 302 300 299 300 304 306 308 305 308 310
292 291 291 292 293 293 294 293 293 294 296 297 297 297 294 295 296 298 297 298 300 301 300 302 303 304 303 302 305 302 300 299 302 305 306 304 303 308
287 288 289 290 291 293 293 293 291 292 296 296 297 297 295 296 297 297 296 297 300 301 301 302 303 303 300 296 299 301 300 300 301 302 304 305 304 304
287 287 287 289 290 291 293 294 293 293 294 296 297 296 297 297 297 297 297 296 297 299 298 301 303 303 301 299 298 300 299 301 300 301 302 304 305 304
286 287 287 288 289 290 292 294 294 294 294 295 297 297 298 298 297 298 297 297 297 297 296 296 302 304 305 305 300 297 300 298 302 302 303 303 302 301
286 286 287 288 289 289 289 291 292 295 295 296 296 298 299 298 298 298 298 297 297 298 298 302 303 303 304 302 300 297 298 300 300 300 301 302 303 299
286 286 286 287 288 289 289 289 291 292 296 296 296 296 298 297 299 299 298 299 298 298 299 298 300 302 301 302 300 299 299 299 300 300 301 300 300 301

GFSNE_sfc_thetae_066.txt.gz
Theta_e
298 299 298 298 299 299 298 297 294 291 293 297 298 302 303 303 305 305 306 310 315 316 316 316 318 320 322 327 332 334 334 336 337 338 339 339 339 340
298 298 297 297 297 297 296 296 296 294 292 297 298 301 302 302 304 304 306 311 313 312 314 315 317 317 319 324 329 332 331 332 335 335 336 337 337 338
297 296 295 296 295 296 296 295 294 294 292 295 298 300 300 300 301 304 305 305 308 312 313 314 315 318 320 323 325 328 329 330 331 333 334 334 334 335
295 295 295 295 295 296 296 295 295 294 292 290 295 297 298 300 301 301 303 304 305 309 310 311 313 315 319 321 322 324 326 327 328 330 331 331 331 332
294 295 295 295 294 295 295 295 296 296 295 292 292 295 296 298 299 300 301 302 303 307 308 310 312 314 318 320 321 322 322 322 324 326 327 328 329 330
296 296 296 297 295 294 294 294 295 294 295 294 293 294 294 296 298 297 298 301 301 303 306 308 311 312 316 318 320 320 319 320 322 323 323 324 326 327
298 297 298 299 302 301 296 295 295 294 295 295 295 294 294 294 294 298 297 299 301 303 303 305 307 310 313 318 316 319 318 319 321 322 321 320 322 324
298 300 301 301 302 305 306 306 301 295 295 296 296 295 293 294 297 297 297 296 295 303 302 303 307 309 311 314 316 318 318 319 319 320 320 320 320 322
300 301 299 300 301 300 303 304 304 305 302 297 294 295 294 297 297 296 296 297 297 301 303 301 306 307 310 314 316 317 317 318 317 317 318 319 320 321
299 298 297 297 299 298 298 297 298 298 299 300 297 295 296 297 298 298 298 299 301 303 305 300 305 304 311 316 315 315 316 316 315 316 317 317 317 319
298 298 298 299 302 303 299 297 296 296 300 302 302 301 301 302 301 299 298 297 296 298 305 304 305 306 310 314 318 313 314 314 315 316 317 316 316 317
296 298 301 300 304 305 300 298 294 294 296 296 298 299 301 301 302 299 300 297 295 295 303 301 305 307 303 313 315 314 316 313 313 314 315 315 314 319
294 297 297 300 301 301 301 299 297 298 298 297 297 298 299 300 300 302 302 302 298 299 303 305 305 307 306 305 307 312 316 316 318 316 313 313 313 316
293 297 298 298 299 298 298 299 300 299 299 297 296 296 298 297 299 302 302 303 304 302 303 304 302 306 304 303 303 307 311 313 316 316 317 314 313 313
294 298 299 299 299 299 298 299 299 300 299 296 296 296 297 298 299 298 302 304 304 302 303 302 304 309 307 302 299 305 305 309 313 314 316 313 313 314
295 296 297 299 298 298 299 299 300 300 297 297 297 296 299 297 295 297 299 300 298 298 301 303 310 310 307 306 304 301 304 305 310 311 312 313 314 314
293 296 293 296 297 297 296 297 296 296 297 299 297 297 296 295 298 300 298 299 296 298 301 305 308 310 308 307 303 303 302 307 310 310 310 309 311 313
290 289 292 293 293 295 295 295 294 293 296 298 298 298 296 297 298 298 298 299 300 301 302 303 303 302 302 303 305 300 302 303 308 309 309 307 308 312
287 287 287 289 291 293 294 294 292 292 296 298 298 298 297 296 298 296 296 300 301 302 303 305 304 301 298 294 301 301 300 302 304 305 307 306 306 308
287 287 287 288 289 290 292 293 294 294 295 297 297 297 297 297 297 297 296 299 300 300 301 304 304 304 298 298 298 299 299 302 303 302 304 307 308 305
286 286 287 288 288 289 290 293 294 295 296 298 298 299 299 299 298 298 298 298 300 299 299 301 303 306 306 305 299 298 300 298 302 304 304 303 303 304
286 286 286 287 287 289 289 290 293 294 296 299 299 300 300 300 298 298 298 298 298 299 299 301 304 306 305 303 299 298 298 301 300 300 300 302 303 299
286 287 286 287 287 288 289 289 290 293 295 297 299 299 299 298 299 299 299 299 299 299 301 300 302 304 303 303 301 298 299 299 301 300 301 300 300 301

GFSNE_sfc_thetae_069.txt.gz
Theta_e
299 299 299 300 300 300 300 298 295 291 292 297 298 302 303 304 306 304 304 309 313 313 315 316 317 314 316 321 324 329 334 336 337 339 341 341 341 342
299 299 299 299 298 298 297 297 295 292 289 295 297 299 301 302 305 304 304 309 309 311 315 315 317 314 315 318 322 325 329 333 334 335 338 338 339 340
297 297 296 297 296 296 296 295 294 293 290 293 296 298 298 299 301 303 304 303 304 311 314 314 314 315 315 318 320 323 325 329 330 333 335 336 337 337
296 296 296 296 295 296 296 295 295 296 293 291 294 295 295 298 299 300 301 302 303 308 312 314 313 314 314 315 318 321 322 325 328 330 332 334 335 336
296 296 296 295 295 296 296 295 296 296 296 294 293 295 296 296 296 298 299 301 302 307 309 310 312 312 312 313 315 319 319 321 324 326 327 330 332 333
297 297 297 296 295 295 295 296 296 294 294 293 293 293 295 296 296 294 295 299 300 301 305 308 310 310 311 312 314 318 317 319 321 322 323 325 328 330
298 298 298 300 303 301 297 296 295 294 294 293 292 293 294 294 293 295 294 297 299 301 302 303 304 305 306 313 311 315 317 318 320 321 322 321 323 325
298 299 299 301 302 304 305 305 303 295 293 293 292 292 294 295 296 295 295 295 294 301 300 301 304 304 307 309 314 314 315 317 318 319 320 320 320 323
299 299 299 300 301 299 302 304 304 305 305 296 293 294 294 297 296 295 295 295 295 299 299 298 303 302 306 309 313 314 314 317 317 317 318 319 320 321
298 298 298 298 299 299 298 298 298 298 299 300 299 297 297 299 298 297 297 297 298 299 300 296 301 302 305 307 312 314 315 316 315 316 318 318 317 319
297 299 297 297 301 303 299 299 298 298 302 304 304 303 303 302 300 297 295 295 294 296 300 299 300 301 303 305 311 312 313 314 314 316 318 316 316 317
296 296 297 298 302 302 299 299 298 297 297 297 299 300 302 301 303 299 297 294 295 295 299 299 299 301 299 305 309 311 313 313 313 314 315 315 315 319
294 294 294 298 301 301 300 299 297 298 298 297 297 298 298 299 299 300 300 298 296 296 302 301 300 301 301 302 306 310 314 313 314 314 313 313 313 317
294 294 295 298 301 300 300 299 299 300 299 297 297 296 296 297 298 299 300 301 301 300 303 303 300 301 300 300 301 308 312 314 315 314 315 314 313 314
294 295 297 299 300 300 299 299 299 299 298 296 296 296 297 299 300 300 300 302 302 302 303 303 302 301 300 301 302 305 306 310 314 313 314 313 315 316
294 293 295 298 299 299 299 298 298 298 296 296 296 298 299 298 296 298 296 298 298 299 303 304 303 300 296 302 304 304 306 305 311 313 313 313 315 315
293 290 290 294 294 295 296 296 296 294 295 295 297 297 297 297 296 297 296 298 296 296 297 299 302 302 299 304 302 304 305 306 310 312 312 310 312 313
289 287 286 288 290 292 292 294 295 293 293 296 298 297 296 293 295 298 298 296 296 296 297 298 297 296 301 302 305 302 306 306 309 311 311 309 308 310
287 286 286 287 288 289 292 293 292 292 295 296 297 297 297 297 297 296 295 295 295 294 301 303 302 301 297 295 300 300 301 307 308 308 309 308 306 307
287 286 286 286 287 288 290 291 293 293 295 296 298 297 297 297 297 295 296 299 299 300 301 301 301 300 298 297 297 299 297 307 307 306 306 308 307 305
287 286 286 286 287 288 289 290 292 293 295 297 297 297 298 299 297 298 297 299 300 299 299 300 302 305 303 303 297 298 300 299 305 306 305 304 302 303
287 286 287 287 287 287 288 289 290 293 294 297 298 299 299 299 298 298 298 297 298 299 299 301 304 303 301 299 296 297 298 301 300 300 301 304 303 299
287 287 287 287 287 287 288 288 289 291 293 294 298 298 299 298 299 299 298 298 298 299 299 299 302 303 301 299 298 298 298 299 300 299 299 299 301 302

GFSNE_sfc_thetae_072.txt.gz
Theta_e
293 292 293 294 294 294 294 294 293 288 288 290 290 295 296 297 300 300 298 306 309 311 314 314 315 316 314 316 317 321 325 330 334 338 340 341 341 343
294 293 293 294 296 297 296 295 294 292 288 290 291 292 295 297 299 299 299 306 308 307 310 311 312 317 317 317 317 320 323 326 330 334 337 338 340 340
293 295 295 296 295 295 295 295 293 293 289 291 291 293 293 293 295 296 298 298 298 307 307 310 311 314 317 316 317 318 320 322 326 329 334 335 338 339
294 295 294 296 295 295 294 292 292 292 291 288 291 292 292 293 294 293 296 298 298 303 307 311 311 312 314 315 315 316 318 321 324 326 330 333 335 337
295 294 295 295 294 294 294 294 294 294 293 292 291 293 293 294 293 293 293 294 297 302 305 307 310 311 313 314 314 314 314 318 319 321 325 329 331 335
295 296 296 295 294 294 295 294 294 294 294 293 292 293 294 294 293 292 291 293 293 298 301 304 306 308 311 312 313 313 313 315 319 319 320 323 327 330
296 296 297 299 303 302 299 297 295 294 293 293 292 292 292 292 291 292 291 292 292 294 296 299 298 299 302 311 310 310 311 314 318 319 320 319 322 325
296 298 297 300 301 303 304 304 303 298 293 292 292 291 292 293 293 292 291 290 289 296 295 295 300 297 300 301 307 310 311 313 316 317 319 319 320 323
297 297 296 298 299 297 300 303 302 303 303 299 294 293 293 295 295 294 292 291 291 294 295 294 296 299 301 304 310 309 312 312 313 315 317 318 320 322
296 296 296 295 296 296 295 296 298 298 299 299 298 298 297 297 297 297 295 293 293 295 295 291 294 294 298 300 308 310 313 313 312 314 316 317 317 320
296 295 295 294 298 300 297 296 296 297 303 306 305 303 303 302 301 298 295 293 292 292 297 293 295 294 296 298 301 308 310 312 313 315 316 316 316 318
294 294 297 296 299 300 296 296 294 296 298 299 300 301 302 303 304 299 295 292 292 292 296 294 295 296 293 298 301 303 306 311 311 313 315 315 315 319
292 292 293 297 298 300 300 297 296 298 298 297 296 296 295 294 297 300 297 295 292 292 296 296 295 296 296 294 297 302 304 305 308 312 313 313 313 316
291 292 292 297 298 298 300 301 301 299 297 293 292 291 291 292 295 297 298 298 298 296 297 297 296 297 295 293 295 299 302 305 309 311 313 314 313 314
292 293 296 295 297 298 300 299 299 295 294 294 291 291 291 293 293 293 296 298 298 298 300 298 298 297 297 298 294 297 300 306 308 309 312 312 314 316
293 291 292 294 296 297 297 297 296 293 292 292 291 294 295 293 293 294 293 296 293 294 299 300 298 298 294 293 294 296 300 303 310 310 312 312 315 317
293 288 288 288 289 291 293 294 295 293 292 293 295 295 296 295 295 296 296 295 293 293 293 297 300 299 296 294 294 300 300 301 310 310 311 311 314 315
289 286 286 286 287 288 289 291 293 293 293 294 295 296 296 295 294 294 294 294 293 295 294 296 297 298 297 297 299 298 300 300 309 310 310 309 309 313
286 285 285 285 286 287 288 288 289 292 294 295 296 296 296 296 297 296 296 296 295 296 297 297 297 295 291 292 300 300 301 301 307 308 309 308 308 310
286 286 285 285 286 286 287 289 290 291 293 294 295 295 295 296 295 293 293 293 293 295 293 297 298 295 294 296 297 300 297 303 305 307 307 309 308 307
285 286 286 286 286 286 287 288 289 290 292 294 296 296 297 297 296 296 298 299 298 297 297 298 300 304 302 302 298 298 300 298 305 307 305 304 303 303
286 285 286 286 286 286 287 287 288 290 291 293 296 297 298 297 296 295 296 297 298 299 299 301 302 301 300 299 297 297 298 303 302 303 304 305 304 299
286 286 286 286 286 286 287 287 287 289 290 292 294 296 296 294 295 297 295 295 296 297 299 299 300 300 299 299 298 298 300 301 303 302 300 302 302 302

GFSNE_sfc_thetae_075.txt.gz
Theta_e
290 290 290 292 291 292 291 292 291 288 288 289 288 292 294 296 298 298 296 302 306 308 312 311 310 311 312 313 315 316 318 319 323 328 332 339 341 343
292 290 290 291 292 295 296 295 294 291 288 292 289 290 292 296 297 297 296 302 304 305 307 311 310 309 310 312 315 317 318 317 320 325 330 332 338 340
290 290 291 292 295 295 295 295 294 293 289 291 290 291 290 291 294 295 296 293 295 303 305 307 310 310 310 312 316 317 317 317 318 321 324 330 334 337
290 293 294 295 294 295 294 294 293 293 291 288 291 291 290 292 293 292 295 297 295 300 303 305 307 310 311 312 314 316 316 316 315 316 321 325 330 335
293 293 293 294 293 294 294 292 293 294 292 290 290 292 292 293 292 293 293 293 295 300 303 303 305 307 310 310 312 314 314 314 315 315 317 320 323 332
294 295 295 295 294 293 293 293 293 293 293 292 292 292 292 294 294 292 291 292 292 296 299 301 302 304 306 309 312 313 313 313 314 314 315 318 320 325
295 295 296 298 301 301 298 297 296 294 293 293 291 292 292 292 291 293 291 292 292 293 293 294 295 296 298 304 308 311 311 313 313 314 314 317 318 320
296 297 298 299 299 303 303 303 301 297 295 294 292 292 292 293 294 292 291 289 288 292 291 292 295 295 297 297 305 310 310 311 311 311 312 315 317 319
296 296 296 297 298 297 299 301 300 301 301 297 295 294 293 295 295 294 293 292 291 291 291 290 293 293 298 303 308 308 310 310 310 311 311 314 317 319
295 295 295 294 295 295 295 295 295 295 297 298 298 298 298 297 297 296 295 295 295 293 293 290 292 292 295 296 304 308 309 310 309 310 312 313 314 317
295 295 294 293 297 299 295 294 293 295 300 303 304 304 306 304 301 297 294 293 292 292 293 292 291 291 293 295 297 304 307 308 309 311 312 312 313 316
293 294 296 295 298 298 294 293 293 293 295 296 298 300 301 305 305 298 296 293 293 291 295 292 291 292 290 295 297 299 300 306 308 310 312 312 313 316
291 290 292 296 297 298 298 294 294 296 297 296 295 296 297 296 297 301 299 296 294 292 297 295 292 292 292 292 295 297 298 303 305 308 311 312 312 315
290 291 291 296 296 296 297 299 301 299 294 293 291 291 291 291 292 294 297 298 298 296 297 297 294 293 292 291 291 295 297 301 304 304 306 312 312 313
292 293 296 294 294 294 299 300 298 293 290 289 290 290 290 291 291 292 294 296 296 297 297 295 294 294 294 294 294 294 296 298 302 303 306 309 312 314
293 292 291 291 292 293 293 295 296 294 291 292 291 290 292 295 293 291 292 293 294 294 297 298 296 295 294 296 296 294 296 295 301 304 306 310 311 315
292 288 284 286 287 287 288 290 293 293 291 293 293 293 295 295 293 293 295 295 292 292 291 295 298 297 298 296 293 294 294 296 300 304 306 307 311 314
288 284 285 285 285 286 286 287 288 290 290 293 294 295 295 295 295 295 295 294 293 293 293 294 297 296 296 297 299 294 295 298 301 305 307 306 309 314
285 283 283 285 285 285 286 287 287 289 291 291 293 295 296 296 295 294 293 294 293 293 293 294 295 294 292 290 296 299 295 300 301 305 307 308 308 312
285 284 283 285 285 285 286 286 287 289 289 291 292 295 296 296 294 291 291 294 293 294 293 296 295 294 292 292 293 296 297 298 301 305 307 309 310 308
286 285 284 284 286 286 286 287 287 287 289 291 294 296 296 297 296 296 296 294 295 295 293 294 297 301 298 298 298 298 299 297 303 307 307 306 306 306
286 286 286 286 286 286 286 286 287 287 288 290 292 295 297 297 296 296 296 297 294 295 294 295 297 299 298 297 295 296 297 300 300 303 304 306 305 301
286 286 286 286 286 286 286 286 286 286 288 289 291 294 295 294 296 296 296 298 299 298 299 298 299 300 299 299 297 294 297 302 303 302 302 301 302 303

GFSNE_sfc_thetae_078.txt.gz
Theta_e
288 288 288 289 289 290 290 290 289 286 287 289 288 291 292 293 296 297 296 300 304 305 306 308 310 312 311 312 313 314 315 317 318 320 323 327 332 339
289 288 288 289 290 290 291 292 293 291 288 291 290 290 292 295 297 297 295 301 303 304 304 306 307 310 310 311 311 311 313 315 316 318 319 324 328 332
287 288 289 290 290 292 294 294 293 293 289 291 292 291 288 291 293 293 294 293 294 302 304 304 306 307 309 310 310 310 312 314 315 315 317 321 324 330
289 289 290 294 293 292 293 293 293 293 292 289 291 290 288 291 292 292 293 296 295 300 303 304 304 306 307 309 311 312 313 315 317 315 316 318 320 324
289 290 290 291 291 292 292 292 292 293 292 290 290 292 292 292 291 291 292 292 295 300 303 304 304 305 305 308 310 310 311 313 315 316 315 314 314 319
291 292 294 293 293 292 293 292 292 292 292 291 291 292 292 293 292 291 290 291 292 295 299 301 302 303 303 306 309 309 310 312 314 314 314 314 313 314
294 295 295 297 301 300 297 295 294 293 293 292 291 292 292 292 292 293 292 293 292 292 292 293 294 295 296 301 306 308 308 311 313 314 313 313 313 315
294 295 297 298 298 301 302 302 301 297 295 294 293 291 292 293 294 294 293 291 289 292 291 291 294 293 294 295 301 304 307 309 312 312 313 313 313 314
295 295 294 296 297 295 298 300 299 301 300 296 293 293 294 295 295 294 294 293 291 292 292 289 291 291 295 298 303 305 307 309 311 311 311 311 311 313
294 294 294 294 294 295 294 293 294 295 296 296 295 294 295 298 297 296 295 295 295 296 296 290 290 290 293 294 303 305 307 308 309 310 311 311 311 311
293 294 294 292 296 299 294 293 293 294 298 301 301 302 303 304 303 299 295 293 292 293 296 293 292 289 291 292 295 302 305 306 307 309 311 311 310 311
293 293 296 295 297 297 293 291 289 291 294 294 295 297 300 299 302 298 297 293 292 292 295 291 291 290 288 292 295 296 296 304 306 307 308 310 310 308
293 291 291 296 297 298 297 293 292 294 294 294 294 295 296 296 297 298 299 297 294 293 297 294 291 292 290 289 292 294 295 295 298 300 306 308 309 309
292 291 291 296 297 295 294 297 299 299 296 293 291 290 291 292 293 296 299 299 299 297 297 298 295 292 291 288 289 292 294 296 297 299 302 308 310 311
293 294 295 295 294 291 293 297 298 294 292 288 287 287 289 291 291 292 294 297 297 298 299 298 297 296 295 290 290 291 293 295 298 300 301 305 307 310
294 291 293 291 291 290 290 291 291 293 293 288 289 293 293 289 290 292 291 294 293 294 297 297 296 294 290 291 291 291 293 293 297 299 301 302 305 311
292 287 284 284 285 286 287 288 288 288 288 288 291 293 293 294 295 295 294 293 292 291 292 295 296 294 294 292 290 292 291 293 295 297 301 300 303 309
288 283 282 282 285 285 284 285 286 288 288 289 291 292 293 295 295 294 294 293 292 291 292 293 294 295 295 296 298 292 292 293 296 298 300 301 302 308
285 284 283 283 284 285 285 284 285 287 289 289 290 291 293 295 296 294 293 294 293 294 294 294 294 292 289 288 294 299 295 295 297 297 301 302 301 309
286 285 284 284 283 285 285 284 285 286 287 288 289 291 294 294 294 291 291 292 293 294 293 294 293 293 291 291 292 296 297 297 298 298 300 302 306 308
286 285 286 285 284 285 285 285 286 286 287 288 288 291 294 296 295 295 294 292 293 294 291 292 294 298 296 297 294 296 298 296 299 300 301 302 303 307
286 285 286 286 286 286 286 286 285 286 287 287 288 291 294 296 295 295 296 294 293 295 294 295 297 297 296 294 292 296 298 299 298 298 302 304 305 302
286 286 286 286 286 287 286 286 285 286 287 288 289 291 293 294 295 296 297 298 293 294 294 294 296 298 296 296 295 295 298 301 302 302 301 302 302 303

GFSNE_sfc_thetae_081.txt.gz
Theta_e
287 286 286 287 287 288 288 288 287 284 286 289 287 289 291 292 295 296 294 301 304 304 305 306 308 309 311 314 313 314 314 315 316 318 320 321 323 328
287 286 286 286 287 288 289 289 289 287 285 289 288 289 290 294 295 297 295 302 303 304 304 305 306 308 309 311 313 312 313 313 314 316 317 319 321 325
286 286 287 287 288 288 289 290 290 290 288 290 290 290 288 290 292 293 294 293 295 302 304 304 305 305 307 309 311 313 313 311 311 313 316 317 319 321
287 287 288 291 289 289 289 290 290 291 290 288 289 290 287 289 291 291 293 295 293 299 303 304 304 305 305 307 309 310 312 311 310 311 313 316 317 319
288 288 289 289 288 289 290 290 290 291 291 290 289 292 291 289 290 291 290 291 294 299 302 304 304 305 305 305 307 309 310 311 312 313 314 315 316 317
290 290 290 290 290 290 291 292 292 291 291 290 291 290 291 291 290 290 290 290 291 295 298 300 301 303 304 306 306 307 308 310 311 311 312 315 316 314
293 293 293 296 301 299 297 295 293 292 291 291 291 291 291 292 292 294 292 293 292 291 292 292 294 295 296 302 304 306 306 309 310 312 313 313 313 314
294 295 296 298 297 300 302 302 299 296 294 294 292 290 291 293 293 292 293 292 290 294 290 291 293 292 293 294 300 302 303 308 309 310 312 313 313 313
294 293 294 295 297 294 297 299 299 300 299 295 293 293 293 294 294 293 293 293 292 295 293 288 290 290 293 296 300 301 302 305 307 307 310 311 312 313
293 294 293 292 294 295 293 292 293 294 295 295 294 294 294 294 294 294 293 294 295 296 296 290 291 289 292 293 300 302 303 305 306 308 309 310 310 312
294 293 294 292 296 299 294 292 292 292 297 299 300 300 301 302 301 298 294 293 291 293 296 293 294 292 290 291 294 301 305 306 307 308 309 309 309 311
293 293 297 296 298 298 293 292 291 291 293 292 293 295 298 297 300 299 295 292 293 291 296 293 293 292 291 290 293 294 296 304 305 306 307 308 309 306
293 293 293 296 297 298 298 293 291 293 295 294 293 294 294 296 297 298 297 294 292 293 297 295 293 291 290 288 290 291 292 293 296 299 306 306 306 307
292 293 292 295 297 297 295 295 296 296 293 295 293 293 293 292 292 294 296 297 300 297 298 297 294 293 291 287 288 290 292 293 294 294 296 301 306 307
293 293 295 295 294 291 292 293 294 289 291 290 288 287 288 290 290 291 294 298 299 299 299 299 296 295 294 292 288 289 291 293 295 295 296 298 300 305
293 290 293 291 291 290 288 288 288 289 289 288 287 291 292 293 291 290 291 294 295 295 298 298 298 296 292 295 293 290 291 291 295 295 297 299 303 306
292 289 284 283 283 286 286 286 286 287 287 287 287 288 290 293 294 294 293 293 292 292 292 296 297 296 296 294 291 290 289 291 292 293 298 297 300 305
288 284 284 284 283 283 285 285 285 286 287 287 287 288 290 292 292 295 295 293 292 292 292 293 294 293 293 294 296 291 289 290 292 294 296 296 297 301
285 284 284 284 284 283 284 285 284 285 286 287 287 289 290 291 293 294 294 293 292 292 293 293 292 291 288 288 294 298 292 291 293 293 295 300 297 300
285 285 285 285 285 284 283 285 285 285 286 286 287 288 288 290 292 292 293 292 293 293 293 293 292 291 289 289 289 293 296 294 294 293 294 298 300 304
285 285 286 286 286 286 285 286 286 285 286 287 287 287 289 291 293 294 293 293 291 293 292 292 294 298 294 294 290 294 294 296 296 295 296 298 298 299
285 285 286 286 286 286 286 286 285 285 285 286 287 288 290 292 293 294 295 295 292 292 293 295 296 296 294 292 290 293 292 297 296 298 298 299 298 296
285 285 285 286 286 286 286 286 285 285 285 286 287 288 289 289 294 295 296 295 293 293 294 293 293 294 293 293 293 294 296 297 297 297 297 301 300 302

GFSNE_sfc_thetae_084.txt.gz
Theta_e
285 285 285 286 286 287 287 286 285 283 285 287 286 289 291 291 295 297 295 301 304 304 305 306 307 308 310 311 312 314 314 315 316 317 319 320 322 324
286 285 284 285 286 286 286 287 287 286 284 289 289 289 290 294 295 298 296 302 303 304 304 305 306 307 308 309 310 312 315 314 315 315 316 317 319 321
285 285 285 285 286 286 287 287 287 287 285 289 289 289 288 290 292 294 295 295 295 303 303 304 304 305 306 307 309 310 312 314 313 314 314 315 317 319
286 286 287 290 288 287 287 288 288 289 288 286 290 290 287 289 290 289 292 295 294 298 302 304 304 305 305 306 306 308 310 312 313 313 312 312 314 317
287 287 288 288 287 288 288 288 289 290 290 288 288 291 290 289 289 290 290 291 294 299 302 303 304 305 305 306 306 307 309 310 311 313 311 310 311 314
289 289 289 288 288 288 289 289 290 290 290 290 290 290 291 291 291 290 289 289 290 294 298 300 301 302 305 306 306 307 307 308 309 311 311 312 311 312
290 291 291 294 299 299 296 295 294 292 291 290 290 291 291 292 291 293 292 292 293 293 292 293 294 296 297 303 304 306 307 308 308 309 311 311 311 312
293 292 294 298 296 300 301 301 300 295 294 292 290 288 290 292 293 293 293 290 289 293 291 291 293 292 294 295 300 303 304 307 307 307 309 310 311 313
294 294 292 295 297 293 297 300 299 299 299 294 292 293 292 293 294 293 293 292 292 294 292 289 291 291 294 296 300 301 303 304 306 306 308 309 310 312
293 294 293 293 293 293 293 293 293 293 294 294 293 292 293 294 294 294 293 293 294 295 296 290 292 291 293 294 299 301 302 303 304 305 307 308 308 311
294 294 293 293 297 299 294 293 292 292 297 299 300 300 301 301 299 294 292 291 290 292 296 294 294 293 292 293 294 300 302 303 304 304 306 307 308 309
292 293 296 296 299 299 294 293 291 292 292 291 292 293 296 295 299 296 294 292 291 288 295 293 294 294 290 294 294 295 297 302 305 306 306 307 307 307
292 292 293 296 297 298 298 294 292 293 292 291 291 292 294 293 294 295 296 296 293 292 296 296 294 294 293 291 291 292 294 295 298 302 305 305 306 306
292 292 291 296 297 297 295 295 295 294 290 288 290 293 292 293 295 296 297 297 298 296 297 297 295 293 292 291 291 293 292 293 294 295 297 302 305 306
292 292 296 295 295 291 292 293 292 288 288 287 288 288 289 290 289 290 292 293 295 297 300 299 297 295 294 292 290 290 292 294 294 295 295 296 297 300
293 292 292 292 291 289 288 288 287 287 287 287 287 288 290 291 292 291 290 292 293 295 299 299 297 296 293 294 293 292 292 292 295 295 297 297 298 299
292 289 286 285 284 284 284 286 287 286 285 287 286 286 288 289 290 293 293 292 292 291 294 296 298 298 297 294 293 294 293 291 294 295 297 298 299 301
288 284 284 284 284 284 284 284 286 286 285 286 286 286 287 288 289 292 293 294 292 292 291 294 295 294 294 294 297 292 293 291 292 295 296 296 298 301
285 284 284 285 285 285 284 284 283 285 286 285 285 286 287 289 289 290 292 293 293 293 293 293 293 292 289 287 294 297 294 293 293 293 296 298 298 300
285 284 284 285 285 285 285 285 285 285 285 285 286 287 287 287 287 288 290 290 292 293 293 293 292 291 289 288 290 294 295 293 292 293 293 296 299 302
285 284 285 285 285 285 286 286 286 285 285 286 286 286 287 287 287 289 290 292 292 292 292 291 293 296 294 294 291 291 293 295 295 294 294 295 297 299
285 284 285 286 286 286 285 286 285 285 285 285 286 287 287 288 288 289 291 293 293 291 292 294 295 295 293 292 289 289 292 295 296 297 299 299 299 296
285 285 285 285 286 286 286 285 285 285 285 285 286 287 288 287 289 291 294 295 293 290 292 293 294 294 292 292 291 291 292 293 294 293 296 298 298 300

GFSNE_sfc_thetae_087.txt.gz
Theta_e
294 294 294 294 295 295 294 294 291 288 290 293 294 297 298 299 300 301 301 303 304 304 305 306 307 308 309 311 312 313 315 317 317 318 319 320 322 323
294 293 293 294 294 294 294 294 293 291 289 294 295 297 298 298 300 300 301 303 304 304 304 305 306 307 308 309 310 311 312 314 316 316 317 318 320 321
293 293 293 294 294 294 294 294 293 293 290 294 295 296 296 297 298 299 300 300 301 303 304 304 304 305 306 307 308 310 311 312 314 317 316 317 317 318
292 293 293 294 294 295 294 294 293 294 292 290 293 294 295 297 297 297 298 298 299 301 303 304 304 304 305 306 307 308 308 311 312 315 316 316 316 316
292 292 293 294 293 294 294 294 294 294 294 292 293 295 296 296 296 297 297 298 298 301 302 303 304 305 305 306 306 307 308 309 311 312 313 316 314 314
293 294 294 294 293 294 294 294 294 292 292 291 291 293 294 296 295 294 295 296 296 299 300 301 302 303 305 306 306 307 307 308 308 311 312 314 313 312
294 294 294 296 299 299 296 293 292 292 291 291 290 290 291 292 292 295 294 295 296 298 298 299 300 301 303 305 305 307 307 308 307 308 311 311 312 312
294 295 297 298 298 300 300 301 299 296 294 293 290 290 290 292 294 294 294 292 290 300 298 297 300 299 300 301 303 304 306 307 308 309 309 310 311 312
295 294 294 295 297 296 298 300 299 300 299 297 295 293 293 294 295 294 294 295 294 297 297 295 298 297 300 300 301 302 303 305 307 308 308 308 309 310
294 294 295 295 296 295 294 294 295 296 297 297 296 296 297 297 297 296 296 296 297 298 298 292 297 297 299 300 301 301 302 303 304 305 307 308 307 308
294 295 295 296 298 299 295 294 294 294 298 301 300 300 301 300 299 296 294 293 291 294 297 296 297 296 297 299 300 301 301 302 304 304 305 306 306 307
294 294 296 297 299 299 296 296 293 294 294 294 295 296 297 297 299 298 296 290 290 290 296 294 294 295 292 298 300 301 301 302 303 304 305 305 305 306
292 293 294 296 297 298 298 294 293 295 295 293 292 293 292 294 294 297 298 297 294 294 297 297 296 296 295 294 298 300 301 301 302 303 305 305 305 305
293 293 293 296 297 297 295 295 295 295 291 289 289 289 290 292 294 296 297 298 300 298 299 299 295 296 295 294 292 299 300 300 301 301 303 305 306 306
294 294 296 295 294 293 292 293 293 290 288 286 287 288 289 291 293 294 296 298 298 299 300 300 297 296 294 293 293 295 297 300 300 300 301 302 303 304
294 292 292 292 291 291 289 289 288 289 287 286 287 288 289 289 290 292 292 293 294 295 299 300 300 298 295 295 295 295 298 296 301 300 300 301 302 303
292 290 288 287 287 287 288 288 288 288 287 287 286 286 287 287 288 290 293 293 292 293 295 298 298 298 297 296 294 295 297 297 301 302 301 300 302 304
289 286 285 286 286 286 286 287 287 287 287 287 286 286 286 287 288 290 291 291 291 292 293 296 297 294 295 296 299 296 296 298 300 298 299 299 298 302
286 285 285 284 286 285 285 286 286 287 287 286 286 286 287 287 288 288 289 289 290 293 294 295 296 293 289 288 294 298 296 298 297 298 298 298 299 304
286 285 286 285 286 284 286 286 286 287 286 286 286 287 288 288 287 287 288 288 288 291 293 294 294 294 292 291 292 296 295 298 297 297 298 301 303 301
286 285 286 286 285 286 287 286 286 286 287 287 287 287 288 287 286 287 287 289 289 288 289 292 294 298 297 296 291 292 297 295 298 298 299 298 298 300
286 285 286 286 286 286 287 286 286 286 286 286 286 287 288 288 287 287 287 287 289 289 290 293 296 296 294 291 290 291 294 299 296 297 298 299 299 296
286 285 285 286 286 286 287 286 285 286 286 286 286 288 288 288 289 288 289 292 293 293 291 292 294 294 294 293 292 293 294 296 296 294 297 298 298 299

GFSNE_sfc_thetae_090.txt.gz
Theta_e
299 299 299 299 299 298 298 297 294 290 291 296 296 300 301 301 302 302 302 304 304 306 307 307 306 308 310 311 312 313 315 317 319 320 321 321 322 325
298 298 298 298 298 298 297 297 296 293 291 295 296 298 300 300 301 301 301 303 304 305 305 305 305 307 308 309 310 311 312 314 315 317 319 319 321 322
298 297 296 297 296 297 297 297 296 295 292 296 297 298 298 298 299 300 301 301 302 304 304 305 305 306 307 307 308 309 310 312 313 315 316 317 319 320
296 296 295 295 296 296 296 296 296 296 295 292 295 296 297 299 299 299 299 300 301 302 303 304 304 305 305 306 306 307 309 310 311 313 314 316 318 319
295 295 295 295 294 295 296 296 296 296 295 294 294 297 298 298 298 299 298 298 300 303 303 304 304 304 305 305 306 307 308 309 309 310 312 314 316 319
296 296 296 295 295 295 295 295 295 295 296 293 292 294 296 297 297 296 295 297 298 300 301 303 304 304 305 305 306 307 307 308 308 309 310 312 313 317
296 296 297 298 299 299 297 296 296 293 292 292 291 292 292 293 293 296 294 296 298 299 298 300 301 302 304 305 305 307 307 308 308 308 309 310 311 313
295 295 296 298 298 300 301 301 300 296 294 293 292 290 291 293 294 295 294 293 291 300 298 297 301 301 302 303 306 307 307 308 308 309 309 309 311 311
295 295 294 295 297 296 298 300 300 300 300 298 295 295 294 296 296 295 295 294 295 298 297 296 300 299 302 303 305 304 304 306 307 308 308 309 309 311
294 295 296 295 296 297 296 296 296 297 297 298 298 297 298 298 298 297 296 297 298 299 299 293 299 298 301 302 304 304 303 304 305 306 307 308 308 309
295 296 296 295 297 299 297 295 295 295 300 301 301 301 301 302 301 297 294 294 294 295 298 297 297 297 299 300 302 304 303 303 303 304 305 306 307 308
294 295 297 296 299 299 297 297 295 294 294 296 297 297 298 298 299 297 296 293 291 290 297 295 296 296 293 300 301 301 302 302 303 304 305 306 306 305
294 295 296 297 297 298 298 297 294 296 295 294 294 295 295 295 294 296 296 294 293 291 296 297 295 296 296 295 298 300 302 302 303 303 304 304 305 305
294 295 295 296 297 296 296 296 296 295 293 292 291 291 291 291 293 296 296 297 300 298 300 300 297 297 295 295 295 299 300 301 302 302 303 305 305 305
295 295 296 296 295 294 294 294 294 291 290 289 288 289 290 291 291 292 294 296 298 298 299 299 297 296 296 294 294 297 297 299 301 301 301 303 303 304
295 294 293 294 293 292 291 291 290 289 289 288 287 288 290 290 289 291 291 293 293 294 298 300 300 300 297 296 295 294 296 295 301 301 301 302 303 305
293 292 290 288 288 288 289 289 290 289 287 287 287 287 287 287 288 290 290 290 290 292 294 298 301 300 301 297 294 294 297 297 300 300 300 300 301 302
290 287 286 287 287 286 287 287 289 289 288 287 287 287 286 286 287 289 291 291 290 291 291 295 298 297 295 296 298 295 297 297 298 299 301 299 299 302
287 287 286 287 287 286 287 286 287 288 289 288 286 286 286 287 288 289 289 289 288 289 291 293 295 293 290 287 295 298 297 296 298 298 299 300 299 301
287 287 286 287 286 287 287 286 287 288 288 288 287 287 287 287 288 288 287 287 287 288 289 292 295 294 293 291 292 296 296 298 298 298 298 300 301 302
287 287 287 287 287 287 286 287 287 287 288 288 288 288 288 288 288 287 287 288 288 287 287 288 293 299 299 298 294 294 297 295 298 299 299 298 298 299
287 286 287 287 286 286 287 287 287 286 287 287 287 287 288 289 288 288 288 287 287 287 288 289 293 296 296 294 293 294 295 298 297 297 298 298 298 295
287 287 287 287 286 286 287 287 286 286 287 287 287 287 289 289 291 290 289 288 288 292 293 290 291 294 294 294 294 294 293 294 296 296 298 298 298 298

GFSNE_sfc_thetae_093.txt.gz
Theta_e
300 300 300 300 300 300 299 298 295 290 292 296 296 300 300 301 303 302 302 305 305 305 306 306 308 309 310 311 313 313 314 314 317 320 322 322 324 325
300 298 298 299 299 299 299 298 297 294 290 295 297 298 299 299 302 302 301 306 304 305 305 305 307 307 308 308 309 310 311 313 314 316 318 320 321 323
299 298 298 298 298 298 298 298 297 296 292 294 297 298 298 298 299 300 301 300 301 304 305 305 305 306 306 307 307 308 309 311 312 313 315 316 319 320
297 297 297 297 297 297 297 296 296 296 294 292 296 296 296 298 298 299 299 300 300 303 305 305 305 305 305 306 306 307 308 309 310 311 313 315 316 318
296 296 296 296 295 296 296 295 296 296 296 294 293 296 296 298 297 299 298 299 300 303 304 305 305 304 305 305 306 307 308 308 309 310 311 313 315 316
297 298 297 296 296 295 295 295 295 295 295 294 294 295 295 297 297 296 295 298 297 299 302 303 303 304 305 305 305 306 307 307 307 309 310 310 311 313
296 296 296 298 300 300 296 297 296 295 293 292 291 292 293 293 293 294 294 296 297 298 299 298 299 300 302 305 305 306 306 307 307 307 309 309 310 310
294 295 297 298 298 301 301 301 299 295 294 293 292 290 291 293 294 294 294 293 290 298 296 297 299 299 300 301 305 307 307 307 308 308 308 309 309 310
295 295 294 295 297 296 298 300 299 300 300 297 294 294 294 295 296 294 294 294 293 296 297 295 299 298 301 301 306 307 307 307 307 307 308 308 309 309
294 295 295 295 296 296 296 295 296 297 297 297 297 297 298 298 298 297 296 296 297 297 298 292 297 297 300 301 305 306 306 306 306 306 307 308 308 309
295 296 295 295 298 299 296 295 295 296 300 301 302 302 303 302 301 298 294 292 291 293 297 295 295 296 298 298 301 305 305 305 305 304 305 307 307 308
294 295 297 296 299 299 295 295 293 294 296 296 296 297 299 298 300 297 295 291 291 291 296 293 294 295 292 297 299 300 302 305 304 304 305 306 306 305
293 294 296 298 298 298 298 295 293 294 296 295 294 294 295 296 296 296 296 293 291 291 295 296 294 294 294 294 297 299 300 300 301 302 304 305 305 304
293 295 296 297 297 298 297 297 297 296 293 292 291 291 292 293 293 294 294 295 296 295 297 297 294 294 294 293 292 297 299 300 300 300 301 303 305 306
295 296 297 297 296 295 295 295 295 292 290 289 288 290 291 290 291 292 292 293 294 296 298 298 297 296 295 293 293 294 295 298 299 299 299 301 300 301
295 294 294 294 294 293 292 291 291 290 289 288 288 289 289 289 288 289 288 289 290 292 296 297 298 297 294 294 294 294 296 294 298 299 299 299 301 303
292 291 289 289 288 288 289 290 291 290 289 289 288 287 287 287 287 288 288 288 287 288 290 295 297 298 298 297 294 295 295 295 297 297 298 297 299 301
289 287 287 287 287 288 288 288 289 289 289 289 289 287 286 286 286 287 288 288 288 289 289 291 293 294 295 297 299 295 295 295 296 297 298 297 297 300
286 286 286 287 287 287 287 287 287 288 289 289 288 288 287 286 286 286 287 289 288 289 290 291 291 291 289 288 295 299 295 296 296 296 297 298 297 298
286 285 286 287 287 287 287 287 287 287 288 288 288 288 287 287 286 286 288 287 287 287 287 289 290 291 290 291 291 295 296 296 296 296 296 299 300 303
286 286 287 287 287 287 287 287 287 287 287 287 288 288 288 288 287 287 288 289 289 286 285 286 289 295 294 296 292 293 296 295 297 296 298 296 295 296
286 286 287 287 287 287 287 286 286 286 286 287 287 287 287 287 287 288 289 288 287 287 287 289 290 291 291 292 292 293 295 296 296 297 297 297 296 292
286 286 286 286 287 287 286 286 286 286 286 287 287 287 287 287 288 289 290 289 288 287 289 291 291 290 290 293 293 293 294 294 295 294 295 297 297 298

GFSNE_sfc_thetae_096.txt.gz
Theta_e
293 293 292 292 293 292 292 291 288 286 287 291 288 292 293 293 297 296 295 303 305 306 306 306 307 307 309 311 312 313 314 314 315 316 319 322 323 324
294 292 291 291 292 292 291 291 290 287 286 290 289 291 292 296 297 298 295 305 305 305 305 307 306 306 307 309 309 309 310 311 313 314 315 317 320 322
292 292 292 292 291 291 291 291 290 289 288 291 290 291 291 291 293 294 296 294 295 305 305 307 307 306 306 307 307 308 308 309 311 312 313 315 316 319
291 291 291 295 290 290 290 289 289 290 289 288 290 290 290 291 291 292 296 298 295 302 305 305 305 306 308 306 307 307 307 308 309 310 312 313 314 316
291 290 291 291 290 290 290 289 289 292 289 289 289 290 290 291 291 293 294 297 299 303 304 304 304 305 306 307 307 308 308 307 308 308 309 311 312 314
293 293 292 292 290 289 290 289 291 290 290 290 290 290 290 293 292 292 292 293 294 298 301 302 303 304 305 305 306 306 306 307 306 308 309 309 310 312
293 293 293 295 300 299 296 293 292 293 293 293 292 292 292 292 291 293 293 294 295 296 294 294 295 297 297 302 303 306 306 307 306 307 308 308 309 309
290 291 291 296 295 299 300 300 299 294 293 293 292 291 292 292 294 293 292 290 288 294 292 292 295 295 296 297 303 305 307 307 307 307 308 308 308 309
289 290 291 293 295 293 297 299 299 300 299 295 293 294 292 293 294 292 292 292 291 293 291 290 293 294 296 300 304 306 307 306 306 307 307 307 308 308
292 291 291 292 292 294 293 293 293 293 294 295 294 293 293 294 295 295 295 295 296 297 297 291 292 291 294 296 304 305 306 306 306 307 306 307 307 307
293 292 291 292 296 299 295 294 292 293 298 301 301 301 302 302 301 298 294 293 291 291 293 293 293 292 292 294 297 303 305 305 305 306 306 307 307 307
292 292 296 295 299 299 295 293 290 291 294 293 294 297 298 296 300 296 294 290 289 289 291 292 290 290 287 293 294 295 296 303 305 305 306 305 306 302
290 291 292 297 298 299 299 294 294 295 295 294 294 294 293 294 294 295 295 292 290 288 291 293 293 291 291 290 291 293 294 295 299 302 305 305 305 304
292 292 292 297 298 298 297 297 298 297 292 291 290 289 289 290 292 293 294 293 293 293 295 296 293 293 291 290 290 291 292 297 296 296 299 302 305 305
293 294 296 296 296 294 295 296 295 290 288 287 286 287 288 291 290 289 291 292 292 293 294 295 295 295 294 292 292 293 293 294 296 297 299 300 298 300
293 293 293 293 293 292 291 290 289 288 288 287 287 287 287 287 287 288 288 289 288 289 292 294 294 296 293 293 293 293 294 292 295 296 295 298 301 300
294 289 288 287 287 286 287 288 288 287 288 287 287 287 286 287 287 288 287 287 286 286 287 290 291 294 295 293 292 293 292 293 296 295 296 293 297 300
289 286 285 286 285 286 286 286 286 287 287 286 287 287 287 286 286 286 287 286 286 287 287 289 290 290 292 293 298 294 293 294 295 293 294 293 293 297
285 284 284 285 285 286 286 286 285 286 287 286 286 287 287 287 286 286 286 286 286 287 289 291 290 288 286 286 291 298 294 295 295 294 296 295 293 296
285 285 285 286 286 286 286 286 286 285 285 286 286 287 287 287 286 285 286 286 286 287 288 289 288 288 286 286 288 294 296 295 295 295 295 296 297 301
285 285 286 286 286 286 286 286 286 285 286 286 287 287 287 287 286 287 287 288 289 287 285 286 289 293 291 292 290 292 294 296 297 295 295 293 294 296
285 285 286 286 286 286 286 286 286 285 285 286 286 286 287 286 286 286 286 287 288 288 287 288 290 290 289 288 287 291 291 294 296 297 298 299 295 291
285 285 285 286 286 286 286 286 285 285 285 286 286 286 287 286 287 287 288 288 288 288 289 288 289 291 288 288 289 290 292 292 293 293 295 298 298 298

GFSNE_sfc_thetae_099.txt.gz
Theta_e
291 290 290 290 290 290 290 289 287 283 286 286 287 290 291 291 295 296 293 301 305 306 306 306 306 307 308 309 309 311 313 314 314 316 316 318 320 322
292 290 289 289 290 290 289 289 288 286 286 287 287 289 291 295 296 296 294 302 302 304 305 308 306 306 306 307 308 309 310 311 311 313 314 315 316 319
289 289 290 289 289 289 289 289 288 287 287 289 288 289 289 290 292 292 294 292 294 303 304 305 305 306 306 306 307 307 308 309 310 311 311 312 314 315
289 289 289 293 289 288 288 288 288 288 287 287 288 287 288 289 290 289 294 296 294 301 304 304 304 305 306 306 307 307 308 308 308 309 310 311 312 314
289 289 289 289 288 288 288 288 288 291 287 285 287 287 288 288 289 291 292 292 296 301 304 304 304 305 305 305 307 308 308 308 307 307 308 309 310 312
291 291 291 290 288 287 288 288 289 288 287 287 288 288 289 291 290 289 290 292 293 297 300 302 303 304 305 305 305 306 307 307 306 307 308 307 308 310
291 291 292 293 299 298 294 293 294 292 289 290 292 291 292 291 291 291 292 293 294 292 293 294 294 295 296 301 302 304 305 305 305 307 307 307 308 307
293 289 289 295 294 299 299 300 298 294 293 292 292 291 292 293 294 292 292 291 288 295 291 292 292 293 294 295 301 303 304 304 306 306 307 307 308 307
287 288 289 292 294 292 296 299 298 299 299 295 293 291 292 293 293 291 292 291 290 294 293 291 291 291 294 297 302 303 304 305 306 306 306 307 307 307
290 291 291 290 291 293 292 292 294 294 293 294 293 293 293 293 293 293 292 293 294 295 296 291 294 292 293 294 301 303 304 305 305 305 306 306 307 307
292 292 291 290 295 299 294 294 294 294 298 300 300 301 301 301 300 297 294 292 290 292 295 293 292 291 292 293 295 300 302 304 305 305 306 306 306 306
292 290 295 294 298 299 294 293 292 292 293 294 294 294 297 296 299 296 294 291 291 289 291 291 289 288 286 291 293 295 295 301 304 305 305 306 305 301
290 291 293 296 297 298 299 295 294 296 296 294 292 292 293 293 293 294 293 292 290 288 291 293 289 288 290 290 290 291 291 293 295 298 304 305 304 303
290 291 290 296 298 297 296 296 296 296 291 288 287 287 288 287 289 291 293 293 294 293 293 293 291 292 291 290 289 292 290 292 293 294 297 302 305 304
291 293 295 296 297 293 293 294 294 289 287 284 283 284 285 286 289 288 289 290 291 292 294 290 291 292 292 291 291 292 291 292 295 294 293 295 297 297
292 290 293 294 293 291 290 289 288 287 286 286 286 287 286 285 285 288 287 288 287 288 291 292 293 292 290 291 293 291 293 292 293 294 294 295 298 300
293 290 287 286 286 286 287 288 288 288 286 285 284 285 285 285 287 288 287 287 285 285 286 289 291 291 290 290 290 292 293 292 293 294 294 295 295 299
288 284 284 285 285 285 286 286 287 287 285 285 284 284 284 286 287 287 287 286 285 285 286 288 289 289 290 291 295 291 292 292 294 294 294 293 291 293
284 284 284 284 285 285 286 286 285 286 286 285 284 284 285 285 287 287 286 286 285 286 287 288 289 288 285 284 290 296 291 292 294 293 293 293 293 294
284 285 284 284 285 285 286 286 286 286 284 284 284 284 285 285 286 286 286 285 285 286 286 288 288 287 285 285 286 290 294 293 293 292 292 294 296 299
284 285 285 285 285 285 285 286 286 286 286 285 286 285 286 286 286 286 286 287 287 287 286 287 289 293 291 291 287 288 291 294 296 295 294 294 294 294
284 285 285 285 285 285 286 286 285 286 285 285 284 285 286 286 286 285 285 285 286 286 287 289 291 291 289 287 286 287 289 293 296 297 297 297 294 291
285 285 285 285 286 286 286 286 285 285 285 285 285 285 286 285 286 286 286 287 287 287 287 288 290 291 288 288 288 288 288 291 293 293 296 298 298 298

GFSNE_sfc_thetae_102.txt.gz
Theta_e
290 289 289 289 289 289 288 288 286 282 284 285 286 288 290 290 294 295 292 300 303 304 305 306 307 307 308 308 309 308 310 311 313 315 315 316 317 319
290 288 287 288 288 288 288 287 286 285 284 286 286 287 289 293 294 296 293 302 304 304 304 304 305 306 307 307 307 307 308 309 311 312 313 313 315 316
288 288 288 288 288 288 287 287 287 286 284 287 287 288 287 288 291 291 292 291 292 302 303 303 304 305 306 306 307 307 308 308 309 311 311 311 312 314
288 288 288 291 287 287 286 286 286 287 285 285 286 286 286 288 288 288 292 295 292 300 303 304 304 305 305 305 306 306 307 308 309 309 309 310 311 312
288 288 288 289 288 287 287 286 287 289 286 284 285 286 286 287 288 289 290 291 295 301 303 304 304 304 304 305 306 306 307 307 307 307 307 308 309 310
290 290 290 289 288 287 288 287 287 285 287 289 291 289 287 289 290 289 289 290 291 295 298 300 302 303 304 304 305 306 306 306 306 307 307 307 307 307
290 290 291 293 298 297 293 289 288 288 288 287 289 291 291 291 291 292 292 293 294 292 291 292 292 294 295 300 302 303 303 304 305 305 306 307 307 306
290 292 290 294 292 297 298 299 297 293 292 292 292 291 291 292 293 292 292 291 288 291 288 289 291 291 292 293 299 302 303 303 304 304 305 306 306 307
288 287 288 291 293 289 294 298 297 299 299 294 293 292 291 290 290 290 290 291 291 293 292 290 290 290 292 295 301 302 303 304 305 305 305 305 305 306
287 287 288 290 289 291 291 290 291 292 294 295 293 292 291 292 291 294 294 294 294 295 295 290 294 291 292 292 299 301 302 302 304 305 304 305 306 305
289 290 291 288 294 298 293 293 294 293 298 300 301 301 301 301 300 296 293 292 290 291 295 293 294 292 290 292 293 299 300 301 302 303 303 305 305 305
289 290 294 293 297 298 294 293 289 292 294 293 294 295 297 296 298 294 292 289 290 289 293 292 291 287 288 288 291 292 292 298 300 301 303 305 305 299
288 289 291 295 296 297 298 295 293 293 294 293 290 289 290 291 292 293 293 292 288 288 293 293 290 285 289 286 289 290 290 291 292 294 299 302 304 302
289 290 289 295 296 297 296 297 296 295 291 289 288 287 285 286 286 287 289 292 293 292 294 294 291 289 286 288 289 293 291 290 290 291 292 298 302 304
291 292 295 295 296 295 294 295 294 288 286 285 284 283 283 285 285 285 287 288 288 290 292 291 290 288 287 286 288 291 291 293 291 291 291 293 295 296
292 289 293 292 291 291 289 289 288 288 287 286 286 285 285 284 283 285 285 285 287 287 291 292 292 291 288 290 290 289 291 291 293 291 291 292 294 295
292 290 284 284 284 285 286 287 288 288 287 286 285 283 284 284 284 286 287 287 285 285 286 289 291 291 291 290 288 289 289 291 292 291 294 294 293 296
289 282 282 282 282 284 285 285 286 287 287 286 285 284 283 283 284 286 287 286 285 285 285 286 287 288 288 289 293 287 288 289 292 294 293 291 291 293
281 281 281 282 283 284 285 285 285 286 288 286 285 284 283 284 285 285 287 286 285 286 286 287 287 286 284 283 290 295 290 290 291 292 292 291 292 293
282 281 283 284 285 284 284 285 285 285 286 286 285 284 284 284 284 283 285 285 285 285 285 287 287 287 285 285 286 290 293 291 291 291 292 294 295 298
283 284 284 284 285 285 284 285 285 285 286 285 286 285 284 284 284 285 286 287 287 286 285 286 288 293 291 291 287 287 291 293 293 292 293 291 290 292
284 284 284 285 285 285 285 285 285 285 285 285 285 284 285 285 285 285 285 285 285 285 286 288 290 290 290 288 286 287 289 291 293 294 294 296 293 290
284 284 285 285 285 286 286 285 285 285 285 285 285 284 285 285 286 286 286 286 286 286 286 286 288 289 289 289 288 287 289 289 289 292 294 297 298 298

GFSNE_sfc_thetae_105.txt.gz
Theta_e
289 288 288 288 288 288 287 287 285 281 282 284 285 288 289 289 293 294 293 299 303 303 304 304 305 307 308 309 309 309 309 309 309 311 314 315 317 318
289 288 287 287 287 287 286 286 285 284 281 285 286 286 288 292 293 295 293 302 303 303 303 303 304 305 305 307 307 308 308 308 308 309 311 312 315 315
287 287 288 287 287 286 286 286 285 284 282 285 286 287 286 287 289 289 291 290 291 302 303 303 304 304 305 305 306 307 307 308 308 309 309 310 313 313
288 287 288 291 286 286 286 286 285 285 284 284 285 285 285 287 287 287 290 293 291 298 302 303 304 304 305 305 305 306 306 306 307 309 310 310 311 312
288 287 287 288 287 287 287 286 286 288 285 283 284 285 285 286 286 288 289 290 293 299 302 303 303 304 305 305 305 305 306 306 306 306 307 308 309 309
288 288 288 288 288 287 287 287 287 285 285 284 284 286 286 289 288 288 289 288 290 294 298 300 301 302 304 304 305 305 306 306 305 306 306 307 307 307
288 289 289 292 298 297 294 288 287 288 286 285 289 291 290 291 291 290 290 292 292 290 291 290 291 292 293 298 300 302 303 304 304 305 306 306 306 307
289 289 289 295 293 297 297 298 296 292 291 291 291 291 291 291 292 291 291 290 288 290 288 288 290 290 291 292 298 301 302 302 303 304 304 305 305 305
286 286 287 290 293 289 293 297 296 298 298 294 291 292 292 292 293 290 288 291 290 293 292 291 290 290 291 294 300 301 302 303 303 304 304 305 305 306
287 287 286 287 287 290 289 288 289 290 291 293 293 293 294 293 291 291 290 293 294 294 295 290 294 292 292 292 299 301 302 302 302 303 303 304 305 305
287 288 288 288 294 297 293 292 293 293 298 300 299 300 301 301 300 295 292 291 288 290 295 292 292 292 293 292 292 299 300 300 301 302 302 303 305 305
287 288 294 293 297 297 293 292 290 290 293 293 293 295 297 295 298 293 290 287 287 287 291 291 292 292 289 290 291 291 290 296 298 299 300 301 303 299
289 289 289 295 295 296 296 293 293 295 294 294 292 291 291 290 290 290 290 289 288 288 292 293 291 290 289 289 289 289 289 290 290 292 297 299 300 302
289 288 290 295 296 297 297 297 297 296 290 288 288 288 288 287 287 287 287 287 289 289 289 292 289 289 289 288 287 290 292 290 289 289 290 295 298 300
291 292 295 295 295 293 292 294 294 288 286 285 285 285 286 286 285 284 286 286 286 287 291 289 289 289 288 286 283 285 288 289 293 289 289 290 291 293
292 289 292 294 294 291 288 288 287 287 287 286 286 288 288 286 284 284 283 284 284 286 289 290 290 291 288 288 288 286 288 289 292 292 293 293 294 293
291 290 288 286 284 283 283 285 286 287 286 287 286 286 286 285 284 285 284 285 285 285 285 288 290 290 290 289 287 288 289 289 290 290 292 292 291 293
288 284 282 281 280 281 283 284 285 285 286 286 286 286 285 284 284 284 284 285 285 285 285 286 287 287 287 289 292 287 286 286 288 288 290 289 289 292
281 281 280 281 282 283 283 284 283 285 286 286 286 286 286 285 284 284 284 286 286 286 286 287 286 285 283 282 288 295 288 289 290 289 289 290 290 290
281 280 281 283 283 283 284 284 284 284 285 285 286 286 285 284 284 284 283 283 284 286 285 286 286 286 285 284 285 288 293 291 290 290 290 292 292 296
282 282 283 284 284 284 284 285 285 284 285 285 285 285 285 285 284 283 284 286 287 285 284 285 287 292 291 290 286 287 290 293 293 291 290 291 290 291
283 283 284 284 284 285 285 285 285 285 285 285 285 285 285 284 283 284 285 285 285 285 285 286 288 289 288 287 286 286 288 291 294 294 294 293 292 288
283 284 284 284 285 285 285 285 285 285 285 285 285 286 285 284 284 285 285 286 286 285 285 285 287 288 287 287 288 287 288 289 290 290 291 295 295 295

GFSNE_sfc_thetae_108.txt.gz
Theta_e
289 289 288 288 288 288 287 287 285 281 281 284 285 288 289 289 292 294 293 300 304 303 304 304 305 306 307 308 309 310 310 310 310 310 310 311 314 315
288 287 287 286 286 286 286 286 285 284 281 284 285 286 288 291 292 295 293 301 303 303 303 303 304 305 306 306 307 307 308 309 309 309 310 310 311 314
287 287 287 287 286 286 285 285 284 284 282 284 285 287 286 287 289 289 291 290 290 300 303 303 303 304 305 305 305 306 307 308 308 309 309 309 311 312
287 287 287 290 286 285 286 285 285 285 284 282 284 285 285 287 287 286 290 293 291 297 302 303 303 304 304 305 305 306 306 306 307 307 308 309 310 312
287 286 287 286 286 286 286 286 285 288 284 283 284 284 285 285 286 287 288 290 293 299 301 302 303 304 304 304 305 305 306 306 306 307 308 308 309 309
288 287 287 287 287 287 287 286 287 285 285 283 283 284 285 288 287 288 288 289 289 294 297 300 301 302 303 304 304 305 306 305 305 306 306 306 307 308
288 288 288 291 297 294 292 289 287 285 286 286 287 289 290 290 291 290 290 291 292 291 291 292 292 292 293 298 300 301 303 304 305 306 306 306 307 307
288 289 289 295 295 300 299 299 296 290 290 290 291 290 291 291 292 291 291 290 288 293 290 289 291 290 292 293 298 300 301 302 303 303 304 304 305 306
287 286 286 289 293 288 293 297 296 298 297 293 290 291 291 293 292 291 291 290 289 293 292 290 290 290 292 294 299 300 301 302 303 303 304 304 305 305
286 286 285 286 287 289 288 288 289 289 290 291 291 291 291 293 292 292 291 291 292 294 295 289 293 292 293 292 298 300 301 302 302 302 303 303 304 305
287 287 286 286 293 296 292 290 291 292 297 300 300 300 300 301 300 295 291 290 289 291 294 292 291 292 293 292 294 299 300 301 301 301 302 302 303 304
286 287 294 293 296 296 292 291 289 289 289 290 293 294 297 295 298 294 293 289 289 287 290 289 288 289 288 293 293 293 293 297 298 299 299 300 301 299
289 289 288 294 295 296 296 292 291 292 295 295 293 292 293 292 292 292 290 289 288 287 291 292 289 289 288 288 291 292 292 291 292 293 297 298 299 299
289 290 290 294 295 297 297 296 296 295 290 287 286 287 288 288 289 289 289 288 289 289 289 289 288 287 287 287 287 291 292 292 290 291 291 294 297 299
291 292 294 294 295 294 294 295 294 285 284 282 283 284 286 287 288 287 287 287 286 287 290 288 288 287 288 285 285 286 287 289 290 291 291 291 292 293
291 288 291 294 293 291 289 287 285 284 284 285 286 287 289 287 286 287 285 285 284 284 287 288 288 288 287 287 287 286 287 286 291 293 293 293 295 295
292 290 287 285 282 283 283 283 284 285 285 285 285 286 286 286 285 286 285 284 283 283 285 288 290 290 289 289 286 288 288 288 290 290 290 289 292 294
287 282 281 281 281 281 282 283 285 285 285 285 285 286 285 285 285 285 285 283 283 284 286 287 287 287 287 288 291 287 288 288 288 288 288 287 288 291
281 281 281 281 281 282 283 283 284 285 285 285 284 285 285 286 286 285 284 284 284 285 286 287 286 285 282 281 286 293 287 288 288 288 289 289 288 290
282 281 281 282 282 283 283 283 283 284 284 285 284 284 285 285 284 284 284 283 283 283 285 287 286 285 283 283 284 288 292 290 290 290 290 292 292 294
282 282 283 283 283 283 284 284 284 284 285 284 284 284 285 285 284 284 284 285 285 285 284 285 287 291 289 289 286 286 290 293 292 290 290 289 289 291
283 283 283 284 284 284 284 284 284 284 285 285 285 285 285 285 284 283 283 283 284 285 285 286 288 288 287 285 284 286 288 290 293 294 294 293 289 287
284 284 285 285 285 285 285 285 285 285 285 285 285 286 286 285 285 284 284 284 285 285 285 285 286 287 286 286 286 286 287 288 290 290 291 295 295 295

GFSNE_sfc_thetae_111.txt.gz
Theta_e
299 299 299 298 299 300 299 298 295 291 291 295 295 299 299 300 300 300 301 301 304 304 304 305 305 306 307 308 309 309 310 311 311 311 311 311 311 313
297 297 297 297 297 297 297 297 296 294 291 295 295 297 298 298 300 300 300 301 302 303 303 304 304 305 305 306 307 308 308 308 309 310 310 310 311 311
296 296 296 296 296 296 296 296 295 294 291 294 295 297 296 297 297 299 299 299 299 301 303 303 303 304 305 305 305 306 306 307 308 309 310 310 311 311
296 296 296 295 296 296 295 295 295 295 293 292 295 295 295 296 297 297 296 298 299 300 302 303 303 304 304 305 305 305 306 306 307 308 308 309 310 310
296 295 296 295 295 295 295 295 296 295 294 292 293 295 294 295 295 297 297 298 298 300 301 302 302 303 304 304 305 305 305 306 306 307 307 308 309 310
295 295 295 295 295 296 295 295 295 295 295 293 293 293 294 295 296 294 294 297 297 298 299 300 301 302 303 304 304 304 305 305 306 306 306 306 308 308
296 296 296 296 298 298 295 296 294 292 293 294 293 293 293 293 293 294 293 294 296 297 297 298 299 299 300 300 300 301 302 302 304 306 306 306 306 307
297 297 297 297 299 301 301 301 299 296 295 294 293 292 292 295 295 294 293 291 290 297 295 296 298 297 299 300 300 300 301 302 302 303 304 305 306 306
294 293 293 293 295 295 296 297 297 298 298 296 293 293 294 295 296 295 294 293 291 294 295 293 297 296 299 299 300 300 301 302 302 303 303 304 304 305
293 293 293 293 294 294 294 294 294 295 295 295 295 295 296 296 296 296 296 295 294 294 296 290 295 296 299 299 299 300 301 301 302 302 303 304 304 304
293 293 293 293 295 296 293 292 293 294 298 299 300 300 301 301 300 297 292 291 290 291 296 294 294 294 295 297 298 299 300 300 301 302 303 302 302 303
292 292 294 294 296 296 293 292 291 292 294 294 295 296 298 297 299 298 296 292 291 290 294 293 293 293 290 295 297 298 299 299 300 301 301 301 301 301
290 291 292 294 295 295 296 294 294 296 295 293 293 294 294 295 296 297 296 293 290 290 294 294 291 291 290 289 292 294 296 296 297 297 297 298 299 299
290 291 292 294 295 297 296 297 297 295 290 290 289 289 290 290 292 293 294 294 294 292 294 294 291 290 289 287 287 292 293 296 296 296 296 297 297 298
292 293 293 294 294 294 293 294 294 290 289 287 287 287 289 290 290 290 291 292 292 292 292 293 292 291 291 288 286 287 289 292 295 294 293 294 296 297
292 292 293 294 292 291 289 289 288 288 287 286 287 288 289 288 287 288 288 289 288 288 291 292 292 292 290 290 289 287 289 288 292 293 293 294 296 296
292 289 287 286 286 286 286 286 287 287 287 287 286 286 287 287 287 288 288 287 286 286 287 289 292 292 292 290 287 289 289 289 291 291 291 291 293 295
288 285 284 284 284 284 285 285 286 286 287 287 287 286 286 286 286 287 287 286 285 285 286 288 289 288 289 290 291 288 289 289 290 291 292 289 290 294
285 284 284 284 284 284 284 284 283 285 287 287 286 286 286 286 286 286 287 287 285 285 286 288 288 286 284 282 288 293 289 290 291 290 290 290 289 292
284 283 283 284 284 284 285 285 285 286 285 286 286 286 286 286 285 285 286 285 285 285 284 287 288 287 285 284 285 289 292 291 291 290 291 294 294 295
285 285 285 285 286 286 286 286 286 286 286 286 287 286 286 286 285 286 286 287 286 286 284 285 288 291 291 290 286 287 290 292 292 290 291 290 290 291
285 285 286 286 286 286 286 286 286 286 286 286 286 287 286 287 285 285 286 285 285 285 286 288 289 289 288 286 285 286 288 291 293 294 294 293 290 287
286 286 286 286 287 287 287 286 286 286 286 286 286 286 286 286 286 286 286 286 285 285 286 286 287 288 287 286 286 287 287 288 289 290 292 295 295 295

GFSNE_sfc_thetae_114.txt.gz
Theta_e
309 308 308 306 306 305 304 302 299 295 296 299 299 302 302 302 302 302 302 303 303 304 305 305 306 307 307 308 308 309 310 310 311 312 313 313 312 312
304 303 303 303 302 302 302 301 300 297 294 298 299 300 301 300 302 301 301 302 303 303 303 304 304 305 306 306 307 307 308 309 310 310 310 312 312 311
301 301 301 301 301 301 301 300 299 298 295 297 299 300 300 299 300 301 301 302 301 302 302 303 303 304 305 305 306 306 307 307 308 308 309 310 311 311
300 299 299 298 299 300 300 299 298 298 296 295 297 298 298 300 299 299 299 300 300 301 302 303 303 303 304 304 305 305 306 306 307 308 308 309 310 311
298 298 298 299 298 299 299 298 299 298 298 296 295 298 298 299 297 298 298 299 300 302 302 302 302 303 303 304 304 305 305 306 306 307 307 308 309 310
299 299 299 299 298 299 299 299 298 298 298 295 293 294 297 298 298 295 295 297 297 298 300 302 302 302 303 304 304 304 304 304 305 306 306 307 308 308
300 300 300 301 301 301 299 299 299 297 295 293 293 293 295 295 293 296 295 296 296 297 298 299 299 301 302 302 302 302 302 302 304 305 305 306 306 307
299 300 300 301 300 301 302 302 301 295 294 295 295 294 295 294 295 294 294 293 290 299 297 297 298 298 300 301 301 301 301 301 302 302 303 304 305 306
298 297 297 297 297 297 298 299 299 299 299 296 293 293 293 295 295 294 294 294 293 296 295 293 297 296 300 300 301 301 301 301 302 302 303 304 304 305
296 296 295 295 295 295 295 295 295 296 295 295 295 295 296 296 297 297 295 297 299 298 296 291 296 296 299 299 302 301 301 301 301 302 302 303 304 304
294 295 294 294 296 297 294 294 294 295 298 300 300 300 301 301 300 297 295 292 289 292 297 294 296 295 297 297 300 302 300 300 300 302 302 303 304 304
294 293 294 294 296 296 294 293 292 293 294 295 296 297 298 298 299 298 297 292 292 291 296 294 293 293 290 296 298 298 298 299 300 300 301 303 303 302
290 291 292 294 295 296 296 295 295 297 296 295 294 295 294 295 295 297 297 296 293 292 295 295 293 293 293 291 293 294 295 296 297 299 300 300 300 300
290 291 292 294 295 296 296 296 296 296 293 291 291 291 291 292 293 294 294 295 296 294 295 295 291 291 291 290 289 292 293 294 296 296 297 298 299 299
292 293 294 295 296 295 295 295 294 292 290 289 289 289 290 291 292 291 292 292 292 293 293 293 292 292 292 290 289 289 289 291 293 294 294 295 295 297
293 292 292 292 292 292 291 291 290 290 289 288 288 289 290 290 289 290 289 289 289 290 292 293 292 292 290 291 290 289 289 287 291 292 293 294 295 297
292 291 289 289 288 288 288 288 289 289 288 288 288 288 287 288 288 290 289 288 286 287 287 291 292 292 292 291 289 289 289 289 291 291 291 290 293 295
289 287 286 286 286 286 286 286 287 287 288 288 288 287 287 287 287 288 288 287 286 287 287 288 289 289 290 291 292 288 288 288 290 291 291 289 289 293
286 285 284 284 284 285 285 286 286 286 287 287 287 287 287 287 287 287 287 287 287 287 287 288 287 287 285 283 289 294 288 289 290 290 291 290 289 292
286 286 286 287 287 287 287 287 288 288 288 288 288 287 288 287 286 286 286 286 287 287 286 287 287 287 286 285 285 289 292 290 289 290 290 293 294 296
287 287 287 287 287 287 287 287 287 287 287 288 288 288 288 288 287 287 287 287 287 286 285 286 288 291 292 291 287 287 290 292 292 290 290 290 289 291
287 287 287 288 287 287 287 287 287 287 286 286 287 288 288 288 287 287 287 286 286 286 286 288 290 290 289 288 286 286 288 291 293 294 294 293 290 287
287 288 288 287 288 288 287 287 287 288 287 287 287 288 288 287 287 287 287 287 287 286 286 286 288 289 288 287 286 286 286 287 289 290 291 295 295 295

GFSNE_sfc_thetae_117.txt.gz
Theta_e
311 312 311 311 309 308 307 305 301 296 297 301 303 304 305 304 305 301 301 304 305 305 305 305 306 307 308 308 309 309 309 310 311 311 313 313 313 314
305 306 306 306 305 305 304 303 301 298 294 299 300 302 302 301 304 301 301 306 304 304 304 304 304 305 306 306 306 307 307 308 309 310 311 311 311 312
302 304 303 302 302 303 303 302 300 299 295 298 299 300 299 300 301 302 302 300 301 304 304 303 303 304 305 305 305 306 307 307 308 309 309 310 309 310
302 301 300 299 300 301 301 300 299 299 297 295 298 298 298 300 300 299 299 299 299 302 304 303 303 303 304 305 305 305 306 306 307 308 308 308 308 310
300 298 298 299 298 299 300 299 299 298 299 297 296 298 299 299 298 299 298 299 300 303 303 303 304 303 304 304 304 304 305 305 306 306 307 307 308 309
299 299 299 299 298 299 298 299 298 298 298 297 296 296 296 297 297 296 295 297 296 298 300 301 302 303 303 304 304 304 305 305 305 305 305 306 307 308
300 300 300 301 302 302 300 300 299 298 297 296 294 293 294 294 294 295 294 294 297 297 296 296 297 299 300 303 304 304 304 303 303 304 305 305 306 307
298 299 299 300 300 301 301 302 301 298 297 296 295 294 294 295 296 295 294 292 290 298 296 295 299 298 298 300 303 301 301 302 302 303 303 303 304 305
297 297 296 297 298 296 298 300 299 300 300 297 294 293 293 294 294 293 294 293 293 295 296 293 297 295 298 299 302 303 302 302 302 302 303 303 304 304
296 295 295 294 295 295 294 294 294 295 296 295 295 294 294 296 295 295 295 296 297 297 298 291 296 295 298 298 301 302 302 302 302 302 302 303 303 304
294 295 295 294 296 297 294 293 294 295 298 300 300 300 301 301 300 297 294 293 291 292 296 294 294 295 296 297 299 303 303 303 301 301 301 302 303 303
293 293 294 294 296 297 293 293 292 293 294 295 296 297 298 298 300 297 296 293 291 290 295 293 294 294 290 295 296 298 298 299 299 300 301 301 303 301
290 291 292 294 295 296 296 293 293 296 295 294 293 294 295 296 295 296 296 295 292 292 297 295 293 293 292 291 293 295 294 294 295 297 300 301 302 302
290 291 292 295 296 297 297 297 298 297 294 292 291 291 291 292 293 293 294 295 295 293 295 294 292 292 290 289 289 293 293 293 293 293 296 299 300 300
293 294 296 296 295 294 295 295 295 291 290 289 288 289 290 291 292 292 292 293 292 292 293 293 292 291 291 289 288 289 290 291 292 292 294 294 294 297
294 293 293 293 294 292 291 291 290 289 289 288 288 289 290 290 289 290 289 290 289 289 292 293 292 291 289 290 289 289 290 288 291 291 292 293 293 295
292 290 289 289 288 288 288 288 288 288 288 288 288 288 288 289 288 290 289 288 287 287 287 290 292 292 291 290 288 289 289 289 290 290 290 289 291 293
289 287 286 285 285 285 285 285 286 287 287 287 287 287 287 287 287 288 288 288 287 287 287 289 289 288 289 290 292 288 289 288 289 290 290 288 288 291
286 285 285 286 286 287 287 287 287 288 289 288 288 287 287 287 287 287 287 287 287 287 288 289 287 286 283 283 289 294 288 289 289 288 289 289 288 290
286 287 287 287 288 287 288 287 287 288 287 287 287 288 288 287 287 286 287 286 286 287 287 288 287 286 284 284 286 289 293 289 289 288 289 291 292 295
287 287 288 288 288 288 288 288 288 287 288 287 287 287 287 287 286 287 287 288 287 286 285 286 288 291 289 290 286 287 289 292 291 289 289 289 289 290
287 287 288 288 288 288 288 288 287 287 287 287 287 287 287 287 287 287 287 286 286 286 287 288 289 289 288 287 286 287 288 290 293 293 293 292 289 286
287 287 288 288 288 288 288 288 288 288 288 287 288 288 288 287 287 288 287 287 287 286 287 286 287 288 287 287 286 286 286 286 287 288 290 294 294 294

GFSNE_sfc_thetae_120.txt.gz
Theta_e
304 305 304 303 303 301 300 297 294 290 291 295 295 298 297 296 299 296 294 303 305 305 306 306 306 307 308 309 309 309 309 309 309 311 312 312 313 313
301 301 301 301 300 299 299 297 296 293 289 294 297 296 297 298 299 296 296 305 304 305 305 306 305 306 306 306 306 307 307 307 308 309 310 311 311 311
299 299 299 299 298 298 297 297 295 295 293 295 295 296 295 294 294 295 296 294 294 303 304 304 304 304 304 305 305 306 306 306 307 308 308 309 310 311
299 298 297 298 295 296 296 294 294 295 293 289 290 291 292 292 292 292 295 298 294 301 304 305 305 304 304 304 304 305 305 305 306 307 308 308 309 310
294 294 295 296 293 294 294 292 292 295 291 290 289 291 291 291 291 292 293 293 298 301 302 302 303 303 303 305 305 304 304 304 305 306 306 307 308 308
294 294 293 293 291 291 294 292 294 292 291 292 290 290 290 291 292 292 290 294 294 296 300 302 302 302 303 304 304 304 305 304 305 305 305 306 306 307
295 296 296 299 303 300 296 294 293 291 291 290 289 290 292 293 292 292 292 290 290 292 294 295 296 296 298 302 302 305 305 304 304 304 304 305 306 306
293 293 294 297 297 300 301 301 299 291 290 292 290 289 289 290 291 293 291 288 286 292 292 294 296 295 297 297 301 303 302 303 303 303 303 303 303 304
291 291 292 294 294 291 295 297 296 298 298 294 291 289 288 288 288 287 288 287 289 292 294 291 292 291 293 297 301 302 302 303 302 302 302 303 303 304
289 289 289 289 291 293 291 291 291 291 292 292 292 292 291 293 293 292 290 290 291 292 296 291 292 294 293 295 301 302 302 303 304 303 302 302 302 303
290 289 289 288 295 297 293 292 291 292 297 299 299 300 300 301 300 296 294 292 290 292 295 293 293 293 292 293 296 302 303 303 304 303 302 301 301 302
287 288 294 292 295 296 292 291 288 288 289 291 293 295 295 295 299 295 292 290 288 290 291 291 291 290 289 290 291 292 293 298 299 298 299 300 300 297
287 287 288 294 296 297 298 294 293 295 296 293 292 290 291 292 293 294 293 293 290 289 295 294 291 291 290 287 288 290 290 290 292 294 297 299 301 300
288 288 289 296 297 296 295 295 296 295 290 287 287 287 288 289 291 291 291 292 291 290 292 291 291 291 290 288 285 289 290 290 290 290 292 295 298 300
290 293 295 295 294 293 294 294 293 289 288 286 285 287 288 288 289 289 290 291 291 291 292 291 290 289 288 286 286 287 288 289 289 289 290 293 293 295
293 290 291 292 292 291 289 289 289 288 287 287 286 287 289 288 287 287 286 286 287 287 291 291 290 290 288 288 288 288 289 288 288 288 288 289 290 291
290 288 287 286 284 285 286 287 287 287 286 285 284 285 286 286 287 288 287 287 285 285 285 288 291 291 291 290 287 289 288 289 290 288 289 288 289 291
288 285 284 284 284 285 285 285 287 288 288 288 287 285 284 284 285 286 287 285 285 285 285 285 287 288 286 288 292 288 288 288 288 288 289 288 288 291
285 285 285 286 286 287 287 287 286 288 288 286 286 286 287 286 286 285 285 286 285 285 286 286 287 286 281 280 287 294 288 288 288 287 288 288 287 289
286 286 286 287 287 287 287 287 288 288 288 288 287 285 286 285 285 284 285 285 284 285 285 286 287 285 283 282 284 288 293 289 288 288 288 289 291 294
286 286 287 287 288 288 288 288 288 287 288 288 288 286 285 284 284 285 285 287 287 286 285 285 287 292 289 289 286 286 288 292 290 288 289 288 287 289
287 287 287 288 288 288 288 288 287 288 288 288 288 287 287 287 285 285 285 285 285 285 285 286 288 288 286 285 284 285 286 289 292 293 294 291 287 285
287 287 287 288 288 288 288 288 288 288 289 289 289 288 288 287 287 287 286 286 286 286 286 286 287 287 285 285 285 284 285 286 287 287 287 294 295 294

GFSNE_sfc_thetae_123.txt.gz
Theta_e
305 305 305 302 300 298 296 296 294 290 291 294 295 297 296 296 299 300 295 301 304 305 305 305 306 307 308 308 308 309 309 310 310 310 311 312 313 313
302 301 300 298 297 298 297 297 296 294 291 294 297 297 297 297 299 294 294 302 303 304 304 305 305 306 306 306 306 307 307 307 308 309 309 310 311 312
299 299 298 298 298 298 297 296 294 294 291 293 293 293 291 291 292 293 295 293 293 303 304 304 304 305 306 306 305 306 306 306 307 308 308 309 310 311
298 297 296 298 295 295 293 292 291 291 290 287 288 289 290 291 290 290 294 296 293 300 303 303 304 303 303 304 305 305 305 305 307 307 307 308 309 310
295 294 293 292 290 290 290 289 290 293 289 287 287 288 289 289 289 290 291 293 295 301 302 302 303 303 302 303 303 304 305 305 305 305 306 308 308 309
294 293 292 292 290 289 292 291 292 290 289 289 288 289 289 291 289 290 291 289 291 295 298 301 302 303 302 302 303 304 305 304 305 305 305 305 306 307
293 293 294 298 301 298 295 292 291 290 289 288 287 288 289 289 288 289 289 289 289 290 290 291 294 296 297 301 302 303 304 304 304 304 304 304 304 306
290 290 291 295 296 298 299 299 297 290 292 291 292 290 287 288 288 289 289 287 285 290 289 290 292 291 293 294 300 302 302 303 303 303 303 303 303 303
287 287 290 292 292 290 295 297 296 298 298 292 287 287 286 288 287 286 285 285 286 289 290 289 293 290 292 296 301 301 302 303 303 303 303 302 302 303
287 288 287 287 289 292 290 290 290 290 292 293 290 290 290 290 291 294 294 292 291 293 295 290 293 291 293 293 299 301 302 303 303 303 303 303 302 302
288 287 288 287 293 296 290 290 289 289 295 298 298 299 300 300 298 294 291 291 290 291 291 292 290 292 294 293 294 299 302 303 302 302 303 303 301 301
286 287 293 291 295 296 293 292 290 290 290 292 294 295 295 292 297 292 291 290 290 287 289 290 292 292 290 289 290 291 291 298 299 299 299 300 300 294
286 286 287 295 297 297 297 291 291 294 291 291 290 288 288 289 290 292 292 290 289 289 292 294 291 291 290 289 291 290 290 289 289 292 297 298 299 298
287 287 290 295 295 295 293 295 295 291 287 285 285 286 287 288 286 288 289 291 292 291 291 291 289 289 287 286 285 288 289 289 288 288 289 293 296 297
289 293 293 293 293 291 292 292 290 285 286 286 284 286 287 288 289 289 288 289 288 289 292 291 290 290 288 286 286 286 287 288 288 288 288 289 289 290
291 287 290 290 290 289 287 287 287 288 287 285 284 284 285 285 285 285 284 285 285 286 289 289 289 288 287 288 288 287 288 287 289 288 288 288 288 289
289 287 285 284 285 286 286 287 288 287 287 287 286 285 285 285 284 285 284 284 285 285 285 286 287 288 289 288 287 288 288 288 290 290 289 287 287 287
287 285 284 285 285 286 286 287 288 289 288 288 287 286 286 286 285 286 284 283 284 283 282 285 285 284 286 286 291 287 287 288 289 290 290 286 285 288
285 285 285 284 284 287 287 287 287 288 289 288 288 287 286 286 285 284 284 284 284 283 283 284 283 285 283 280 284 292 286 288 290 288 288 287 286 287
285 285 285 286 287 287 288 287 288 288 288 288 288 288 287 286 285 285 285 284 283 284 284 283 284 284 284 282 283 286 291 288 289 287 287 289 290 293
285 286 287 287 288 288 288 288 288 288 289 289 288 288 288 287 286 286 285 287 287 285 283 282 284 291 289 289 285 285 287 291 291 287 288 287 287 288
287 286 287 288 288 288 288 288 288 288 288 288 289 288 288 288 286 287 286 285 285 285 285 286 287 287 287 285 283 284 286 288 291 293 293 292 287 283
286 287 287 287 288 288 288 288 288 288 288 289 288 289 288 287 288 288 287 287 286 286 286 285 286 287 286 284 285 283 283 284 286 286 286 293 294 295

GFSNE_sfc_thetae_126.txt.gz
Theta_e
305 305 305 303 301 300 300 300 298 290 290 293 294 297 296 296 298 300 296 300 304 304 305 305 306 307 307 307 308 308 308 308 310 311 312 313 312 314
303 303 301 299 298 298 297 295 296 295 293 294 295 295 294 297 301 294 294 301 302 303 304 305 305 305 305 306 307 308 307 306 308 309 310 311 311 312
300 300 298 298 297 297 297 296 294 293 291 293 292 291 290 290 291 292 294 292 293 301 303 303 304 305 305 304 304 305 306 307 307 308 309 309 310 312
298 297 297 298 295 294 294 292 291 289 289 286 287 288 289 289 289 289 292 295 292 299 304 303 304 303 303 303 303 303 304 305 306 307 308 309 309 310
296 293 292 292 290 289 290 290 290 292 288 287 288 288 289 289 289 289 290 291 294 300 302 302 302 303 303 302 303 303 303 304 305 305 305 307 307 309
292 292 291 291 290 289 291 290 291 290 288 287 287 288 288 289 288 288 289 289 290 295 297 300 302 302 302 303 302 302 304 302 303 304 305 305 306 307
291 292 294 297 301 296 293 291 290 288 287 286 286 286 287 287 287 288 287 288 289 289 289 291 291 291 293 299 301 301 302 302 303 303 304 304 304 304
289 289 291 295 295 298 297 298 295 288 286 287 286 285 285 286 286 287 286 285 283 288 287 288 290 289 291 292 299 301 302 302 303 303 302 303 303 303
286 287 289 292 292 290 295 296 295 297 296 289 286 285 284 286 286 285 286 287 288 290 290 289 289 290 292 295 299 301 302 302 302 303 304 303 303 303
286 286 286 286 288 291 289 289 289 289 290 291 289 288 288 289 291 293 292 291 291 291 294 289 292 290 292 293 299 300 301 301 302 303 302 303 303 302
286 287 287 286 293 295 289 290 291 292 296 298 298 298 298 298 297 291 287 286 286 287 291 292 291 288 290 291 293 298 299 300 302 302 301 302 303 302
286 287 293 291 295 297 295 292 289 287 291 291 292 292 291 290 295 290 289 288 287 288 291 289 287 290 287 292 288 289 289 296 299 299 299 300 301 294
286 286 287 295 297 295 295 290 292 290 288 286 285 285 285 286 287 287 287 288 287 287 291 291 290 290 289 289 290 291 292 289 289 290 295 297 299 297
286 288 291 294 294 293 291 293 293 289 284 283 283 283 284 284 286 288 289 287 288 289 290 291 289 289 287 286 286 289 290 291 289 287 287 292 296 297
290 292 292 292 291 289 291 291 290 284 283 282 281 281 283 285 285 285 286 286 286 286 290 288 290 290 288 286 285 286 287 288 288 286 287 288 287 288
290 288 288 289 290 288 286 288 288 286 288 286 285 286 287 286 286 284 282 283 283 286 288 288 287 287 287 287 286 287 288 287 289 288 288 286 287 287
289 286 284 284 283 285 287 288 289 289 288 288 287 286 286 286 286 286 286 284 283 283 283 286 287 287 286 285 286 286 287 287 289 290 290 288 288 288
287 284 284 285 285 285 284 286 288 289 289 289 289 288 287 286 285 285 285 285 283 283 284 283 283 283 284 286 290 286 286 287 288 290 290 288 288 290
285 285 285 285 286 285 286 287 287 289 290 289 288 288 288 288 287 286 286 285 284 284 284 285 284 283 281 280 284 291 285 284 288 289 289 289 287 288
285 285 285 286 286 286 287 286 287 287 287 289 289 288 288 288 287 286 286 285 284 284 285 286 285 284 283 282 283 286 291 285 284 285 288 289 290 293
285 286 287 287 287 288 287 288 288 288 288 288 288 288 287 288 286 287 287 288 288 286 284 284 285 290 289 289 285 284 286 291 289 287 288 287 286 287
287 286 287 287 288 288 288 288 288 288 288 288 287 288 288 288 287 286 286 286 286 286 286 287 288 288 287 285 283 284 285 287 290 292 293 291 287 284
286 286 286 286 287 287 287 287 287 286 287 287 287 288 288 288 287 287 287 287 287 287 287 286 287 287 286 285 285 285 285 284 285 285 286 291 294 294